LiveATC.Net - Listen to live air traffic control over the Internet!


ICAO: KOSU  IATA: OSU   Airport: Ohio State University Airport
City: Columbus   State/Province: Ohio
Country: United States   Continent: North America
KOSU METAR Weather: KOSU 250153Z 18005KT 10SM BKN055 26/17 A3013 RMK AO2 SLP194 T02610167
KOSU Flight Activity (FlightAware)
KOSU Airport Info   (iFlightPlanner)
KOSU VFR Sectional Chart   (iFlightPlanner) 
KOSU IFR Low Chart   (iFlightPlanner) 

KOSU Ground/Tower
Feed Status: UP   Listeners: 0
Listen in your browser - HTML5 player (in browser, HTML5)
Click here to listen with your own player (launches your MP3 player)
Archive Access: KOSU Ground/Tower
FacilityFrequency
State Ground121.700
State Tower118.800
Sponsored by:

NOTICE

Unauthorized use prohibited. See LiveATC.net Terms of Service


Airport/ARTCC Code
Frequency Search
(e.g., 124.400, 128.75)
Site-wide search
 


Browse Feeds
Top 50 Feeds
HF Oceanic Feeds
Coverage Map
Bad Weather Areas

LiveATC FAQ
Offer LiveATC feed
Contact LiveATC.net
Press Inquiries

LiveATC on iPhone
LiveATC on Android

Windows Phone
Windows 8/10

LiveATC Mobile
(Mobile browser)

ATC Audio Archives
Interesting Recordings

LiveATC Forums


Home Page
About LiveATC.net
Make a Donation
Terms of Use
Privacy Policy

Canadian Air Freqs

AIRMETs/SIGMETs

FAA Airport Status
NAS Status
Arrival Demand


Server Software By:
Icecast.org
Liquidsoap